• In Deutschland
  • Länderverzeichnis
  • Für 7 Tage
  • Wassertemperatur
  • Satellitenkarten
  • Wetterkarte
  • Widgets
  • user-avatar
    Anmelden

    Stündliche Wetter Haiger

    Heute, 21 Oktober, Samstag

    Zeit Temperatur Niederschläge Wind Luftdruck Luftfeuchtigkeit
    00:00 +7°C° 0 mm 2 m/S 727 mmHg 89%
    01:00 +6°C° 0 mm 2 m/S 727 mmHg 92%
    02:00 +6°C° 0 mm 2 m/S 727 mmHg 93%
    03:00 +6°C° 0 mm 2 m/S 727 mmHg 93%
    04:00 +6°C° 0 mm 2 m/S 727 mmHg 94%
    05:00 +6°C° 0 mm 2 m/S 727 mmHg 94%
    06:00 +6°C° 0 mm 2 m/S 726 mmHg 95%
    07:00 +7°C° 0 mm 2 m/S 726 mmHg 95%
    08:00 +8°C° 0 mm 3 m/S 726 mmHg 91%
    09:00 +10°C° 0 mm 3 m/S 726 mmHg 87%
    10:00 +12°C° 0 mm 4 m/S 726 mmHg 84%
    11:00 +13°C° 0,7 mm 4 m/S 726 mmHg 85%
    12:00 +13°C° 0,7 mm 3 m/S 726 mmHg 86%
    13:00 +13°C° 0,7 mm 3 m/S 726 mmHg 88%
    14:00 +13°C° 0,3 mm 3 m/S 726 mmHg 89%
    15:00 +13°C° 0,3 mm 3 m/S 726 mmHg 90%
    16:00 +12°C° 0,3 mm 3 m/S 726 mmHg 92%
    17:00 +12°C° 0 mm 3 m/S 726 mmHg 91%
    18:00 +11°C° 0 mm 3 m/S 726 mmHg 90%
    19:00 +10°C° 0 mm 3 m/S 727 mmHg 89%
    20:00 +10°C° 0 mm 3 m/S 727 mmHg 90%
    21:00 +9°C° 0 mm 3 m/S 727 mmHg 91%
    22:00 +9°C° 0 mm 3 m/S 727 mmHg 92%
    23:00 +8°C° 0 mm 3 m/S 727 mmHg 92%

    Morgen, 22 Oktober, Sonntag

    Zeit Temperatur Niederschläge Wind Luftdruck Luftfeuchtigkeit
    00:00 +7°C° 0 mm 4 m/S 727 mmHg 91%
    01:00 +7°C° 0 mm 4 m/S 727 mmHg 91%
    02:00 +6°C° 0 mm 4 m/S 727 mmHg 91%
    03:00 +6°C° 0 mm 4 m/S 727 mmHg 91%
    04:00 +6°C° 0 mm 4 m/S 727 mmHg 91%
    05:00 +6°C° 0 mm 4 m/S 727 mmHg 90%
    06:00 +6°C° 0 mm 4 m/S 726 mmHg 89%
    07:00 +6°C° 0 mm 4 m/S 726 mmHg 87%
    08:00 +6°C° 0,1 mm 4 m/S 727 mmHg 86%
    09:00 +7°C° 0,1 mm 4 m/S 727 mmHg 84%
    10:00 +7°C° 0,1 mm 5 m/S 727 mmHg 83%
    11:00 +7°C° 0,2 mm 5 m/S 727 mmHg 82%
    12:00 +7°C° 0,2 mm 5 m/S 727 mmHg 82%
    13:00 +7°C° 0,2 mm 5 m/S 727 mmHg 81%
    14:00 +7°C° 0,2 mm 5 m/S 727 mmHg 82%
    15:00 +7°C° 0,2 mm 5 m/S 727 mmHg 82%
    16:00 +7°C° 0,2 mm 4 m/S 726 mmHg 82%
    17:00 +7°C° 0,1 mm 4 m/S 727 mmHg 85%
    18:00 +6°C° 0,1 mm 4 m/S 727 mmHg 87%
    19:00 +7°C° 0,1 mm 3 m/S 727 mmHg 89%
    20:00 +7°C° 0 mm 3 m/S 727 mmHg 90%
    21:00 +5°C° 0 mm 3 m/S 728 mmHg 90%
    22:00 +5°C° 0 mm 3 m/S 728 mmHg 91%
    23:00 +5°C° 0,1 mm 4 m/S 728 mmHg 91%

    übermorgen, 23 Oktober, Montag

    Zeit Temperatur Niederschläge Wind Luftdruck Luftfeuchtigkeit
    00:00 +5°C° 0,1 mm 4 m/S 728 mmHg 91%
    01:00 +5°C° 0,1 mm 4 m/S 728 mmHg 91%
    02:00 +5°C° 0,1 mm 4 m/S 728 mmHg 92%
    03:00 +5°C° 0,1 mm 4 m/S 728 mmHg 92%
    04:00 +5°C° 0,1 mm 3 m/S 728 mmHg 92%
    05:00 +5°C° 0,3 mm 3 m/S 728 mmHg 93%
    06:00 +5°C° 0,3 mm 3 m/S 729 mmHg 93%
    07:00 +5°C° 0,3 mm 3 m/S 729 mmHg 93%
    08:00 +6°C° 0,1 mm 4 m/S 729 mmHg 91%
    09:00 +7°C° 0,1 mm 4 m/S 729 mmHg 89%
    10:00 +7°C° 0,1 mm 4 m/S 730 mmHg 87%
    11:00 +8°C° 0,1 mm 4 m/S 730 mmHg 85%
    12:00 +9°C° 0,1 mm 3 m/S 730 mmHg 83%
    13:00 +10°C° 0,1 mm 3 m/S 730 mmHg 81%
    14:00 +10°C° 0,1 mm 3 m/S 730 mmHg 82%
    15:00 +10°C° 0,1 mm 3 m/S 730 mmHg 83%
    16:00 +10°C° 0,1 mm 2 m/S 730 mmHg 83%
    17:00 +9°C° 0 mm 2 m/S 731 mmHg 87%
    18:00 +8°C° 0 mm 2 m/S 731 mmHg 91%
    19:00 +8°C° 0 mm 1 m/S 731 mmHg 94%
    20:00 +8°C° 0 mm 1 m/S 731 mmHg 95%
    21:00 +8°C° 0 mm 1 m/S 731 mmHg 95%
    22:00 +8°C° 0 mm 1 m/S 732 mmHg 96%
    23:00 +8°C° 0 mm 1 m/S 732 mmHg 96%

    24 Oktober, Dienstag

    Zeit Temperatur Niederschläge Wind Luftdruck Luftfeuchtigkeit
    00:00 +8°C° 0 mm 1 m/S 732 mmHg 96%
    01:00 +8°C° 0 mm 1 m/S 732 mmHg 97%
    02:00 +8°C° 0,1 mm 1 m/S 732 mmHg 97%
    03:00 +8°C° 0,1 mm 1 m/S 732 mmHg 97%
    04:00 +8°C° 0,1 mm 1 m/S 732 mmHg 97%
    05:00 +9°C° 0,1 mm 1 m/S 732 mmHg 97%
    06:00 +9°C° 0,1 mm 1 m/S 732 mmHg 97%
    07:00 +9°C° 0,1 mm 1 m/S 732 mmHg 97%
    08:00 +10°C° 0,1 mm 1 m/S 733 mmHg 95%
    09:00 +10°C° 0,1 mm 1 m/S 733 mmHg 94%
    10:00 +11°C° 0,1 mm 1 m/S 733 mmHg 93%
    11:00 +11°C° 0 mm 1 m/S 733 mmHg 92%
    12:00 +12°C° 0 mm 1 m/S 733 mmHg 92%
    13:00 +13°C° 0 mm 1 m/S 733 mmHg 91%
    14:00 +13°C° 0 mm 1 m/S 734 mmHg 91%
    15:00 +13°C° 0 mm 1 m/S 734 mmHg 91%
    16:00 +14°C° 0 mm 1 m/S 734 mmHg 91%
    17:00 +13°C° 0 mm 1 m/S 734 mmHg 93%
    18:00 +12°C° 0 mm 1 m/S 734 mmHg 95%
    19:00 +11°C° 0 mm 1 m/S 734 mmHg 96%
    20:00 +11°C° 0 mm 1 m/S 734 mmHg 97%
    21:00 +11°C° 0 mm 1 m/S 734 mmHg 97%
    22:00 +11°C° 0 mm 1 m/S 734 mmHg 97%
    23:00 +12°C° 0 mm 1 m/S 734 mmHg 97%

    25 Oktober, Mittwoch

    Zeit Temperatur Niederschläge Wind Luftdruck Luftfeuchtigkeit
    00:00 +12°C° 0 mm 1 m/S 734 mmHg 97%
    01:00 +12°C° 0 mm 1 m/S 734 mmHg 97%
    02:00 +12°C° 0 mm 1 m/S 734 mmHg 97%
    03:00 +12°C° 0 mm 1 m/S 734 mmHg 97%
    04:00 +12°C° 0 mm 1 m/S 734 mmHg 98%
    05:00 +12°C° 0 mm 1 m/S 734 mmHg 98%
    06:00 +12°C° 0 mm 1 m/S 734 mmHg 98%
    07:00 +12°C° 0 mm 1 m/S 734 mmHg 98%
    08:00 +13°C° 0 mm 1 m/S 735 mmHg 95%
    09:00 +14°C° 0 mm 1 m/S 735 mmHg 93%
    10:00 +14°C° 0 mm 2 m/S 735 mmHg 91%
    11:00 +15°C° 0 mm 2 m/S 735 mmHg 88%
    12:00 +16°C° 0 mm 2 m/S 735 mmHg 86%
    13:00 +17°C° 0 mm 2 m/S 735 mmHg 83%
    14:00 +18°C° 0 mm 1 m/S 735 mmHg 84%
    15:00 +18°C° 0 mm 1 m/S 735 mmHg 85%
    16:00 +18°C° 0 mm 1 m/S 734 mmHg 86%
    17:00 +16°C° 0 mm 1 m/S 734 mmHg 88%
    18:00 +15°C° 0 mm 1 m/S 735 mmHg 91%
    19:00 +14°C° 0 mm 1 m/S 735 mmHg 93%
    20:00 +13°C° 0 mm 1 m/S 735 mmHg 94%
    21:00 +13°C° 0 mm 1 m/S 735 mmHg 94%
    22:00 +13°C° 0 mm 1 m/S 735 mmHg 95%
    23:00 +12°C° 0 mm 1 m/S 735 mmHg 95%

    26 Oktober, Donnerstag

    Zeit Temperatur Niederschläge Wind Luftdruck Luftfeuchtigkeit
    00:00 +12°C° 0 mm 1 m/S 735 mmHg 95%
    01:00 +12°C° 0 mm 1 m/S 735 mmHg 96%
    02:00 +11°C° 0 mm 1 m/S 735 mmHg 96%
    03:00 +11°C° 0 mm 1 m/S 735 mmHg 96%
    04:00 +11°C° 0 mm 1 m/S 734 mmHg 96%
    05:00 +11°C° 0 mm 1 m/S 734 mmHg 95%
    06:00 +11°C° 0 mm 1 m/S 734 mmHg 95%
    07:00 +11°C° 0 mm 1 m/S 734 mmHg 95%
    08:00 +12°C° 0 mm 1 m/S 735 mmHg 91%
    09:00 +14°C° 0 mm 1 m/S 735 mmHg 87%
    10:00 +15°C° 0 mm 1 m/S 735 mmHg 83%
    11:00 +16°C° 0 mm 1 m/S 735 mmHg 78%
    12:00 +18°C° 0 mm 1 m/S 735 mmHg 73%
    13:00 +20°C° 0 mm 1 m/S 735 mmHg 68%
    14:00 +19°C° 0 mm 1 m/S 735 mmHg 70%
    15:00 +19°C° 0 mm 1 m/S 735 mmHg 73%
    16:00 +19°C° 0 mm 1 m/S 735 mmHg 75%
    17:00 +16°C° 0 mm 1 m/S 735 mmHg 79%
    18:00 +15°C° 0 mm 1 m/S 735 mmHg 84%
    19:00 +13°C° 0 mm 1 m/S 735 mmHg 88%
    20:00 +13°C° 0 mm 1 m/S 735 mmHg 88%
    21:00 +13°C° 0 mm 1 m/S 735 mmHg 89%
    22:00 +12°C° 0 mm 1 m/S 735 mmHg 89%
    23:00 +12°C° 0 mm 1 m/S 735 mmHg 89%
    Mehr zeigen